Regional Weather Roundup
Issued by NWS Grand Forks, ND

Home | Current Version | Previous Version | Graphics & Text | Print | Product List | Glossary On
Versions: 1 2 3 4 5 6 7 8 9 10 11 12 13 14 15 16 17 18 19 20 21 22 23 24 25 26 27 28 29 30 31 32 33 34 35 36 37 38 39 40 41 42 43 44 45 46 47 48 49 50
000
ASUS43 KFGF 160831
RWRFGF
PRAIRIE TO PINES  WEATHER ROUNDUP
NATIONAL WEATHER SERVICE EASTERN NORTH DAKOTA/GRAND FORKS ND
300 AM CDT WED APR 16 2014

 **SATELLITE DATA USED TO AUGMENT SKY COVER AT AUTOMATED STATIONS**
 *****  WEATHER ACROSS EASTERN NORTH DAKOTA  *****

CITY           SKY/WX    TMP DP  RH WIND       PRES   REMARKS
GRAND FORKS    CLOUDY    30  12  47 E14       29.97S WCI  19
GRAND FRKS AFB CLOUDY    29  13  52 E9        30.01S WCI  20
GRAND FRKS NWS   N/A     30 N/A N/A E15         N/A  WCI  19
DEVILS LAKE    CLOUDY    27  16  63 E15G24    29.96R WCI  15
FARGO          LGT SNOW  28  24  85 E13       29.94F FOG     WCI  17
WAHPETON ARPT  CLOUDY    30  23  74 E17       29.91S WCI  18
$$

 ***** WEATHER ACROSS CENTRAL AND WESTERN NORTH DAKOTA  *****

CITY           SKY/WX    TMP DP  RH WIND       PRES   REMARKS
BISMARCK       CLOUDY    30  15  53 E17G26    29.80R WCI  18
MINOT          LGT SNOW  24  20  84 NE15      29.91R FOG     WCI  11
JAMESTOWN      CLOUDY    27  24  89 E17G26    29.86R WCI  14
MINOT AFB      MIX PCPN  23  23 100 E16G23    29.92R VSB 3/4 WCI  10
GARRISON         N/A     26  21  81 E17       29.84R WCI  13
WILLISTON        N/A    N/A N/A N/A MISG      29.85R
DICKINSON      CLOUDY    26  17  68 NE16      29.72R WCI  14
HETTINGER      CLOUDY    30  21  69 NE12      29.69R WCI  20
$$

 *****  OTHER AIRPORT OBSERVATIONS IN OUR AREA  *****

CITY           SKY/WX    TMP DP  RH WIND       PRES   REMARKS
WALHALLA       FAIR      25  16  68 NE9       30.08R WCI  15
GRAFTON AIRPOR CLOUDY    27  14  59 E13       30.05R WCI  16
VALLEY CITY AR NOT AVBL
CANDO          CLOUDY    25  19  80 E15       29.99R HAZE    WCI  12
CAVALIER APRT  FAIR      27  16  63 NE12      30.07R WCI  16
GWINNER        SUNNY     32  23  69 E24G36    29.85S WCI  19
SHEYENNE NWR     N/A     30  25  82 E18       29.95S WCI  18
ROLLA          LGT SNOW  21  21 100 E16       30.00R WCI   7
 ***** THE ABOVE OBSERVATIONS ARE NON NWS ARE NOT QUALITY
       CONTROLLED AND MAY MIS-REPORT RAIN FOR SNOW...
$$

  *****  WEATHER ACROSS NORTHERN MINNESOTA  *****

CITY           SKY/WX    TMP DP  RH WIND       PRES   REMARKS
FLAG ISLAND    PTCLDY    12   9  85 N3        30.11S
WARROAD        PTCLDY    18   9  68 NE7       30.11S WCI   8
ROSEAU         PTCLDY    23  12  63 E8        30.10R WCI  14
HALLOCK        CLOUDY    27  12  54 E13       30.07R WCI  16
THF RVR FALLS  CLOUDY    25   7  46 E10G16    30.03F WCI  15
BAUDETTE       PTCLDY    19   6  57 E7        30.10S WCI  10
WASKISH        MOCLDY    21   7  53 E8        30.07F WCI  12
CROOKSTON      CLOUDY    28  10  47 E9        30.03R WCI  20
$$
  *****  WEATHER ACROSS CENTRAL AND WEST MINNESOTA  *****

CITY           SKY/WX    TMP DP  RH WIND       PRES   REMARKS
FOSSTON        CLOUDY    27   9  46 E8        30.01S WCI  18
BEMIDJI        CLOUDY    26   4  39 E7        30.02S WCI  18
PARK RAPIDS    CLOUDY    28   5  37 SE6       29.99F WCI  22
ELBOW LAKE     PTSUNNY   28  24  86 E23G29    29.89F WCI  13
WADENA         LGT SNOW  25  21  86 E12       29.97F WCI  14
DETROIT LAKES  MIX PCPN  28  21  74 E13G18    29.96F WCI  18
MOORHEAD       CLOUDY    28  27  93 E12G17    29.96F WCI  18
FERGUS FALLS   LGT SNOW  27  21  80 E14G22    29.90F WCI  15
MORRIS MN      CLOUDY    30  21  69 E29G37    29.86F WCI  15
STAPLES        LGT SNOW  25  19  80 E8        29.99F WCI  16
$$
  *****  WEATHER ELSEWHERE ACROSS MINNESOTA  *****

CITY           SKY/WX    TMP DP  RH WIND       PRES   REMARKS
DULUTH         CLOUDY    23   9  55 E7        30.08S WCI  15
INTRNTL FALLS  PTCLDY    18   7  62 E5        30.11S WCI  11
ELY            PTCLDY     9   5  85 CALM      30.11S
CLOQUET        CLOUDY    25   5  42 E3        30.07F
WHEATON        CLOUDY    32  25  74 E23G29    29.89F WCI  19
BRAINERD       CLOUDY    33   6  32 VRB5      30.03F
HIBBING        MOCLDY    22   8  55 E6        30.08S WCI  14
ALEXANDRIA     LGT SNOW  27  23  86 E17       29.92F FOG     WCI  14
SAINT CLOUD    LGT SNOW  28  25  86 E12       30.00F WCI  18
MINNEAPOLIS    CLOUDY    33  16  49 E17       30.02F WCI  22
$$

  *****  WEATHER ACROSS SOUTH DAKOTA  *****

CITY           SKY/WX    TMP DP  RH WIND       PRES   REMARKS
SIOUX FALLS    CLOUDY    40  28  62 SE13      29.67F
BROOKINGS      NOT AVBL
WATERTOWN      CLOUDY    31  21  66 E16G26    29.73S WCI  20
HURON          CLOUDY    40  27  59 E15G28    29.60S
SISSETON         N/A     32  15  49 SE24G31   29.83F WCI  19
ABERDEEN       CLOUDY    32  20  61 E21G29    29.73F WCI  20
MITCHELL       CLOUDY    45  29  53 SE16G23   29.56F
PIERRE         CLOUDY    39  26  59 NE23G29   29.54R
MOBRIDGE       CLOUDY    34  20  56 E24G32    29.65R WCI  21
RAPID CITY     CLOUDY    39  36  87 NW16      29.61R
$$

  *****  SOME WEATHER IN NEARBY STATES *****

CITY           SKY/WX    TMP DP  RH WIND       PRES   REMARKS
GLASGOW MT     PTCLDY    28  20  71 NE16      29.82R WCI  16
GREAT FALLS MT CLOUDY    36  35  96 W6        29.88R
CHEYENNE WY    CLOUDY    38  29  70 W21       29.72F
SCOTTSBLUFF NE CLOUDY    51  33  50 W23G40    29.61R
OMAHA NE       CLOUDY    46  29  51 S22G35    29.79F
DES MOINES IA  MOCLDY    41  28  60 S16       29.94F
DAVENPORT IA   CLEAR     31  19  61 SE10      30.14S WCI  22
CHICAGO IL     CLEAR     28  18  66 S6        30.23R WCI  22
EAU CLAIRE WI  LGT SNOW  29  21  72 SE8       30.12R WCI  21
LA CROSSE WI   CLOUDY    32  20  61 SE7       30.12R
$$

  *****  SOME NATIONAL WEATHER *****

CITY           SKY/WX    TMP DP  RH WIND       PRES   REMARKS
LA GUARDIA NY  CLOUDY    36  24  62 NW15G23   30.05R
RALEIGH NC     PTCLDY    36  23  59 VRB6      30.16R
ATLANTA GA     CLEAR     35  27  72 NW8       30.14R
NEW ORLEANS LA CLEAR     49  35  58 NE14      30.17S
OKLAHOMA CITY  MOCLDY    47  24  40 S15       29.98F
ALBUQUERQUE NM PTCLDY    48   8  19 E6        29.92S
SALT LAKE CITY CLOUDY    48  22  35 N6        29.95R
LOS ANGELES CA MOCLDY    58  53  84 CALM      29.89R
BOISE ID       PTCLDY    40  19  43 W3        30.02R
SEATTLE WA     CLOUDY    49  24  37 S13       30.08F
$$

*** WEATHER ACROSS MANITOBA...SASKATCHEWAN AND ONTARIO ***
                ***ONTARIO***

CITY           SKY/WX    TMP DP  RH WIND       PRES   REMARKS
GERALDTON      CLEAR      3  -6  66 W2        30.10S
THUNDER BAY    CLEAR      9   5  85 W2        30.19R
SIOUX LOOKOUT  CLEAR     -2  -6  84 S5        30.13R WCI -12
TORONTO        CLEAR     21   9  58 NW15      30.24R WCI   8
BIG TROUT LK   CLEAR     -6 -11  77 NW7       30.15R WCI -20
PICKLE LAKE    NOT AVBL
DRYDEN         CLEAR     12   0  57 SE2       30.12R
KENORA         PTCLDY    12   0  57 NE6       30.12  WCI   3
$$
                *** MANITOBA***

CITY           SKY/WX    TMP DP  RH WIND       PRES   REMARKS
BRANDON        CLOUDY    19  10  68 E17       30.09R WCI   4
DAUPHIN        MOCLDY    18  10  73 E9        30.18R WCI   6
ISLAND LAKE    CLEAR      5   0  78 N3        30.24R
PILOT MOUND      N/A     21  14  73 E15G21      N/A  WCI   8
THE PAS        CLEAR      9  -6  52 E7        30.26R WCI  -3
THOMPSON       CLEAR      0  -9  65 N8        30.31R WCI -15
WINNIPEG       CLOUDY    19   3  49 NE12      30.15R WCI   7
LYNN LAKE      CLEAR      0  -8  71 N5        30.34R WCI -10
CHURCHILL      CRYSTALS   0  -4  85 NW15      30.28S WCI -20
GILLAM         PTCLDY    -6 -11  77 NW8       30.29S WCI -21
$$
                ***SASKATCHEWAN***

CITY           SKY/WX    TMP DP  RH WIND       PRES   REMARKS
ESTEVAN        FLURRIES  23  21  93 E14       29.94R WCI  11
KINDERSLEY     LGT SNOW  25  21  86 NE15      29.98R WCI  12
LLOYDMINSTER   MOCLDY    19  18  93 E6        30.06R WCI  11
PRINCE ALBERT  PTCLDY    16   5  62 E9        30.15R WCI   4
REGINA         FLURRIES  23  19  86 E13G22    29.99R WCI  11
YORKTON        MOCLDY    18  10  73 E6        30.09R WCI   9
N. BATTLEFORD  PTCLDY    19  18  93 E9        30.09S WCI   9
LA RONGE       CLEAR      9   0  66 NE12      30.25R WCI  -6
SASKATOON      FLURRIES  21  19  93 NE13      30.08R WCI   9
SWIFT CURRENT  CLOUDY    25  23  93 E12       29.91R WCI  14
$$
NOTE: THESE ARE AUTOMATED STATIONS WITH LIMITED QUALITY CONTROL
      "FAIR" INDICATES FEW OR NO CLOUDS BELOW 12,000 FEET WITH NO
      SIGNIFICANT WEATHER AND/OR OBSTRUCTIONS TO VISIBILITY.
      SKY/WX - SKY CONDITION AND SIGNIFICANT WEATHER.
      TMP - AIR TEMPERATURE.    DP   - DEWPOINT TEMPERATURE.
      RH  - RELATIVE HUMIDITY.  PRES - PRESSURE.
      HX  - HEAT INDEX.         WCI  - WIND CHILL INDEX.
$



USA.gov is the U.S. government's official web portal to all federal, state and local government web resources and services.